Time,TemperatureF,DewpointF,PressureIn,WindDirection,WindDirectionDegrees,WindSpeedMPH,WindSpeedGustMPH,Humidity,HourlyPrecipIn,Conditions,Clouds,dailyrainin,SoftwareType,DateUTC
2013-03-21 00:03:00,37.9,18.5,29.68,ESE,120,6.3,6.3,45,0.00,,---,0.00,VWS V14.01,2013-03-21 07:03:00,
2013-03-21 00:08:00,37.9,18.0,29.68,West,279,2.7,8.1,44,0.00,,---,0.00,VWS V14.01,2013-03-21 07:08:00,
2013-03-21 00:14:00,37.8,17.8,29.68,NW,314,7.6,7.6,44,0.00,,---,0.00,VWS V14.01,2013-03-21 07:14:00,
2013-03-21 00:19:00,37.8,17.3,29.68,NW,305,7.6,8.1,43,0.00,,---,0.00,VWS V14.01,2013-03-21 07:19:00,
2013-03-21 00:25:00,37.8,17.3,29.68,NW,304,5.8,9.6,43,0.04,,---,0.04,VWS V14.01,2013-03-21 07:25:00,
2013-03-21 00:30:00,37.8,17.3,29.71,North,8,6.3,6.3,43,0.04,,---,0.04,VWS V14.01,2013-03-21 07:30:00,
2013-03-21 00:37:00,37.9,18.0,29.71,WSW,254,0.0,6.7,44,0.04,,---,0.04,VWS V14.01,2013-03-21 07:37:00,
2013-03-21 00:43:00,37.8,17.8,29.71,WSW,244,3.1,5.8,44,0.04,,---,0.04,VWS V14.01,2013-03-21 07:43:00,
2013-03-21 00:49:00,37.8,17.8,29.71,NW,309,3.1,3.1,44,0.04,,---,0.04,VWS V14.01,2013-03-21 07:49:00,
2013-03-21 00:54:00,37.6,17.7,29.71,West,272,5.4,8.3,44,0.04,,---,0.04,VWS V14.01,2013-03-21 07:54:00,
2013-03-21 01:00:00,37.6,17.1,29.71,NNW,333,3.1,5.4,43,0.04,,---,0.04,VWS V14.01,2013-03-21 08:00:00,
2013-03-21 01:05:00,37.6,17.1,29.71,WNW,284,4.0,5.4,43,0.04,,---,0.04,VWS V14.01,2013-03-21 08:05:00,
2013-03-21 01:11:00,37.6,17.1,29.71,NW,324,3.1,5.8,43,0.04,,---,0.04,VWS V14.01,2013-03-21 08:11:00,
2013-03-21 01:17:00,37.6,17.1,29.71,West,268,4.9,6.3,43,0.04,,---,0.04,VWS V14.01,2013-03-21 08:17:00,
2013-03-21 01:22:00,37.6,17.1,29.71,WSW,246,5.4,5.8,43,0.04,,---,0.04,VWS V14.01,2013-03-21 08:22:00,
2013-03-21 01:27:00,37.6,17.1,29.71,WNW,303,3.6,8.1,43,0.00,,---,0.04,VWS V14.01,2013-03-21 08:27:00,
2013-03-21 01:33:00,37.6,17.1,29.71,WNW,299,4.0,4.0,43,0.00,,---,0.04,VWS V14.01,2013-03-21 08:33:00,
2013-03-21 01:39:00,37.6,17.1,29.71,West,277,2.2,3.1,43,0.00,,---,0.04,VWS V14.01,2013-03-21 08:39:00,
2013-03-21 01:44:00,37.6,17.1,29.71,WSW,253,4.9,5.4,43,0.00,,---,0.04,VWS V14.01,2013-03-21 08:44:00,
2013-03-21 01:49:00,37.8,17.3,29.71,NW,321,3.1,9.6,43,0.00,,---,0.04,VWS V14.01,2013-03-21 08:49:00,
2013-03-21 01:55:00,37.8,16.8,29.71,NNE,24,5.4,5.8,42,0.00,,---,0.04,VWS V14.01,2013-03-21 08:55:00,
2013-03-21 02:00:00,37.9,16.9,29.74,North,349,4.0,5.8,42,0.00,,---,0.04,VWS V14.01,2013-03-21 09:00:00,
2013-03-21 02:05:00,38.1,17.1,29.74,NNW,327,3.6,6.3,42,0.00,,---,0.04,VWS V14.01,2013-03-21 09:05:00,
2013-03-21 02:10:00,38.1,16.5,29.74,NW,313,2.7,6.7,41,0.00,,---,0.04,VWS V14.01,2013-03-21 09:10:00,
2013-03-21 02:16:00,37.9,16.4,29.74,NW,321,5.4,7.6,41,0.00,,---,0.04,VWS V14.01,2013-03-21 09:16:00,
2013-03-21 02:21:00,37.9,16.4,29.74,SW,236,0.0,6.3,41,0.00,,---,0.04,VWS V14.01,2013-03-21 09:21:00,
2013-03-21 02:27:00,37.8,16.2,29.74,NNW,330,0.0,3.6,41,0.00,,---,0.04,VWS V14.01,2013-03-21 09:27:00,
2013-03-21 02:32:00,37.6,16.6,29.74,West,266,5.4,5.8,42,0.00,,---,0.04,VWS V14.01,2013-03-21 09:32:00,
2013-03-21 02:38:00,37.4,16.4,29.74,North,357,3.1,4.9,42,0.00,,---,0.04,VWS V14.01,2013-03-21 09:38:00,
2013-03-21 02:43:00,37.4,17.0,29.74,West,281,2.7,7.2,43,0.00,,---,0.04,VWS V14.01,2013-03-21 09:43:00,
2013-03-21 02:49:00,37.4,17.0,29.74,NW,316,0.0,0.0,43,0.00,,---,0.04,VWS V14.01,2013-03-21 09:49:00,
2013-03-21 02:55:00,37.4,17.0,29.74,NW,318,2.2,3.6,43,0.00,,---,0.04,VWS V14.01,2013-03-21 09:55:00,
2013-03-21 03:00:00,37.4,17.0,29.74,NW,304,0.0,2.7,43,0.00,,---,0.04,VWS V14.01,2013-03-21 10:00:00,
2013-03-21 03:06:00,37.2,17.3,29.74,SSE,168,2.7,3.1,44,0.00,,---,0.04,VWS V14.01,2013-03-21 10:06:00,
2013-03-21 03:11:00,37.2,17.9,29.74,SSE,166,0.0,2.7,45,0.00,,---,0.04,VWS V14.01,2013-03-21 10:11:00,
2013-03-21 03:16:00,37.4,18.0,29.74,East,100,3.1,3.6,45,0.00,,---,0.04,VWS V14.01,2013-03-21 10:16:00,
2013-03-21 03:21:00,37.4,18.0,29.74,SW,225,3.6,6.3,45,0.00,,---,0.04,VWS V14.01,2013-03-21 10:21:00,
2013-03-21 03:27:00,37.4,18.0,29.74,NW,323,4.9,5.4,45,0.00,,---,0.04,VWS V14.01,2013-03-21 10:27:00,
2013-03-21 03:33:00,37.4,18.0,29.74,NNE,15,5.4,5.4,45,0.00,,---,0.04,VWS V14.01,2013-03-21 10:33:00,
2013-03-21 03:38:00,37.6,18.2,29.74,West,279,6.3,6.3,45,0.00,,---,0.04,VWS V14.01,2013-03-21 10:38:00,
2013-03-21 03:44:00,37.6,18.2,29.77,NW,320,5.4,5.4,45,0.00,,---,0.04,VWS V14.01,2013-03-21 10:44:00,
2013-03-21 03:49:00,37.8,17.8,29.77,North,357,3.6,4.0,44,0.00,,---,0.04,VWS V14.01,2013-03-21 10:49:00,
2013-03-21 03:54:00,37.8,17.8,29.77,West,280,3.6,5.8,44,0.00,,---,0.04,VWS V14.01,2013-03-21 10:54:00,
2013-03-21 03:59:00,37.9,18.0,29.77,WNW,285,0.0,5.4,44,0.00,,---,0.04,VWS V14.01,2013-03-21 10:59:00,
2013-03-21 04:05:00,37.9,18.5,29.77,NW,318,3.1,4.9,45,0.00,,---,0.04,VWS V14.01,2013-03-21 11:05:00,
2013-03-21 04:10:00,37.9,18.5,29.77,NW,314,2.7,7.2,45,0.00,,---,0.04,VWS V14.01,2013-03-21 11:10:00,
2013-03-21 04:17:00,37.9,18.5,29.77,North,353,2.7,5.4,45,0.00,,---,0.04,VWS V14.01,2013-03-21 11:17:00,
2013-03-21 04:23:00,37.9,18.5,29.77,NW,325,3.1,5.8,45,0.00,,---,0.04,VWS V14.01,2013-03-21 11:23:00,
2013-03-21 04:29:00,37.9,18.0,29.77,NNW,329,2.7,5.4,44,0.00,,---,0.04,VWS V14.01,2013-03-21 11:29:00,
2013-03-21 04:34:00,37.9,18.0,29.77,NNW,342,6.3,6.7,44,0.00,,---,0.04,VWS V14.01,2013-03-21 11:34:00,
2013-03-21 04:40:00,37.9,18.0,29.77,West,279,2.7,7.6,44,0.00,,---,0.04,VWS V14.01,2013-03-21 11:40:00,
2013-03-21 04:45:00,37.9,17.5,29.77,West,262,5.4,5.8,43,0.00,,---,0.04,VWS V14.01,2013-03-21 11:45:00,
2013-03-21 04:51:00,37.9,18.0,29.77,ENE,76,3.1,5.8,44,0.00,,---,0.04,VWS V14.01,2013-03-21 11:51:00,
2013-03-21 04:58:00,37.9,18.0,29.77,NNE,20,0.0,2.7,44,0.00,,---,0.04,VWS V14.01,2013-03-21 11:58:00,
2013-03-21 05:03:00,37.9,18.0,29.77,South,182,0.0,2.7,44,0.00,,---,0.04,VWS V14.01,2013-03-21 12:03:00,
2013-03-21 05:09:00,37.9,18.0,29.77,NW,313,4.0,5.8,44,0.00,,---,0.04,VWS V14.01,2013-03-21 12:09:00,
2013-03-21 05:14:00,37.9,18.0,29.77,WNW,297,4.0,4.9,44,0.00,,---,0.04,VWS V14.01,2013-03-21 12:14:00,
2013-03-21 05:20:00,37.9,18.0,29.77,North,2,2.7,4.0,44,0.00,,---,0.04,VWS V14.01,2013-03-21 12:20:00,
2013-03-21 05:27:00,38.1,18.1,29.77,NW,319,4.0,4.0,44,0.00,,---,0.04,VWS V14.01,2013-03-21 12:27:00,
2013-03-21 05:32:00,38.1,18.1,29.80,South,184,0.0,4.0,44,0.00,,---,0.04,VWS V14.01,2013-03-21 12:32:00,
2013-03-21 05:37:00,38.1,18.1,29.80,NNW,333,0.0,2.7,44,0.00,,---,0.04,VWS V14.01,2013-03-21 12:37:00,
2013-03-21 05:42:00,38.1,18.1,29.80,North,357,0.0,2.2,44,0.00,,---,0.04,VWS V14.01,2013-03-21 12:42:00,
2013-03-21 05:47:00,37.9,18.0,29.80,NW,320,5.8,5.8,44,0.00,,---,0.04,VWS V14.01,2013-03-21 12:47:00,
2013-03-21 05:53:00,37.9,17.5,29.80,WNW,297,7.6,7.6,43,0.00,,---,0.04,VWS V14.01,2013-03-21 12:53:00,
2013-03-21 05:58:00,37.8,17.3,29.80,North,350,5.4,5.4,43,0.00,,---,0.04,VWS V14.01,2013-03-21 12:58:00,
2013-03-21 06:04:00,37.8,17.3,29.80,North,357,3.1,3.6,43,0.00,,---,0.04,VWS V14.01,2013-03-21 13:04:00,
2013-03-21 06:09:00,37.8,17.3,29.80,WNW,290,3.1,5.4,43,0.00,,---,0.04,VWS V14.01,2013-03-21 13:09:00,
2013-03-21 06:15:00,37.9,17.5,29.80,North,0,3.1,3.1,43,0.00,,---,0.04,VWS V14.01,2013-03-21 13:15:00,
2013-03-21 06:21:00,37.9,17.5,29.80,SSW,207,3.1,4.0,43,0.00,,---,0.04,VWS V14.01,2013-03-21 13:21:00,
2013-03-21 06:26:00,37.9,16.9,29.80,NW,308,4.0,4.0,42,0.00,,---,0.04,VWS V14.01,2013-03-21 13:26:00,
2013-03-21 06:31:00,37.9,16.9,29.80,SW,223,3.1,4.0,42,0.00,,---,0.04,VWS V14.01,2013-03-21 13:31:00,
2013-03-21 06:37:00,37.9,17.5,29.80,NNW,329,0.0,3.1,43,0.00,,---,0.04,VWS V14.01,2013-03-21 13:37:00,
2013-03-21 06:43:00,37.9,17.5,29.80,ENE,66,0.0,2.2,43,0.00,,---,0.04,VWS V14.01,2013-03-21 13:43:00,
2013-03-21 06:48:00,37.9,17.5,29.80,ESE,119,3.1,3.1,43,0.00,,---,0.04,VWS V14.01,2013-03-21 13:48:00,
2013-03-21 06:54:00,37.9,17.5,29.80,NW,319,4.0,4.0,43,0.00,,---,0.04,VWS V14.01,2013-03-21 13:54:00,
2013-03-21 06:59:00,37.9,17.5,29.80,NW,307,2.7,3.6,43,0.00,,---,0.04,VWS V14.01,2013-03-21 13:59:00,
2013-03-21 07:04:00,37.9,17.5,29.80,West,272,3.1,4.0,43,0.00,,---,0.04,VWS V14.01,2013-03-21 14:04:00,
2013-03-21 07:09:00,37.9,17.5,29.80,WNW,301,2.7,3.1,43,0.00,,---,0.04,VWS V14.01,2013-03-21 14:09:00,
2013-03-21 07:15:00,38.1,17.6,29.80,ESE,116,0.0,2.2,43,0.00,,---,0.04,VWS V14.01,2013-03-21 14:15:00,
2013-03-21 07:22:00,38.1,17.6,29.80,WSW,251,3.6,3.6,43,0.00,,---,0.04,VWS V14.01,2013-03-21 14:22:00,
2013-03-21 07:27:00,38.1,17.6,29.80,North,2,2.2,4.0,43,0.00,,---,0.04,VWS V14.01,2013-03-21 14:27:00,
2013-03-21 07:33:00,38.1,17.6,29.80,SW,214,2.2,2.2,43,0.00,,---,0.04,VWS V14.01,2013-03-21 14:33:00,
2013-03-21 07:39:00,38.1,17.6,29.80,SE,137,0.0,3.1,43,0.00,,---,0.04,VWS V14.01,2013-03-21 14:39:00,
2013-03-21 07:44:00,38.3,17.2,29.80,SSE,165,5.4,5.4,42,0.00,,---,0.04,VWS V14.01,2013-03-21 14:44:00,
2013-03-21 07:49:00,38.3,17.2,29.80,East,100,4.0,5.8,42,0.00,,---,0.04,VWS V14.01,2013-03-21 14:49:00,
2013-03-21 07:54:00,38.3,17.2,29.80,SE,127,2.7,3.1,42,0.00,,---,0.04,VWS V14.01,2013-03-21 14:54:00,
2013-03-21 08:00:00,38.3,17.2,29.80,SSE,161,2.7,2.7,42,0.00,,---,0.04,VWS V14.01,2013-03-21 15:00:00,
2013-03-21 08:05:00,38.3,17.8,29.80,South,172,2.7,4.0,43,0.00,,---,0.04,VWS V14.01,2013-03-21 15:05:00,
2013-03-21 08:11:00,38.3,17.8,29.80,NNW,336,0.0,4.0,43,0.00,,---,0.04,VWS V14.01,2013-03-21 15:11:00,
2013-03-21 08:16:00,38.3,17.8,29.80,South,183,4.0,5.8,43,0.00,,---,0.04,VWS V14.01,2013-03-21 15:16:00,
2013-03-21 08:21:00,38.3,17.8,29.80,SSE,156,3.1,4.0,43,0.00,,---,0.04,VWS V14.01,2013-03-21 15:21:00,
2013-03-21 08:27:00,38.5,17.4,29.80,West,259,2.7,2.7,42,0.00,,---,0.04,VWS V14.01,2013-03-21 15:27:00,
2013-03-21 08:33:00,38.5,17.4,29.80,NNW,342,0.0,3.1,42,0.00,,---,0.04,VWS V14.01,2013-03-21 15:33:00,
2013-03-21 08:39:00,38.5,17.4,29.80,NW,315,5.4,5.4,42,0.00,,---,0.04,VWS V14.01,2013-03-21 15:39:00,
2013-03-21 08:45:00,38.5,17.4,29.83,SW,221,3.1,7.6,42,0.00,,---,0.04,VWS V14.01,2013-03-21 15:45:00,
2013-03-21 08:50:00,38.7,17.6,29.83,SSE,151,2.7,2.7,42,0.00,,---,0.04,VWS V14.01,2013-03-21 15:50:00,
2013-03-21 08:56:00,38.7,17.6,29.83,SW,217,2.7,3.6,42,0.00,,---,0.04,VWS V14.01,2013-03-21 15:56:00,
2013-03-21 09:01:00,38.8,17.7,29.83,NNE,21,2.2,5.4,42,0.00,,---,0.04,VWS V14.01,2013-03-21 16:01:00,
2013-03-21 09:06:00,38.8,17.2,29.83,NW,324,4.0,6.3,41,0.00,,---,0.04,VWS V14.01,2013-03-21 16:06:00,
2013-03-21 09:12:00,39.2,17.5,29.83,NW,323,3.6,3.6,41,0.00,,---,0.04,VWS V14.01,2013-03-21 16:12:00,
2013-03-21 09:17:00,39.4,17.1,29.83,SSE,159,3.1,5.8,40,0.00,,---,0.04,VWS V14.01,2013-03-21 16:17:00,
2013-03-21 09:23:00,39.6,17.2,29.83,North,0,3.6,4.0,40,0.00,,---,0.04,VWS V14.01,2013-03-21 16:23:00,
2013-03-21 09:29:00,39.6,17.2,29.83,South,181,2.7,5.8,40,0.00,,---,0.04,VWS V14.01,2013-03-21 16:29:00,
2013-03-21 09:35:00,39.7,17.4,29.83,WSW,256,2.2,2.2,40,0.00,,---,0.04,VWS V14.01,2013-03-21 16:35:00,
2013-03-21 09:40:00,39.9,17.6,29.83,East,85,3.1,3.1,40,0.00,,---,0.04,VWS V14.01,2013-03-21 16:40:00,
2013-03-21 09:46:00,40.1,17.1,29.83,NE,51,2.7,5.4,39,0.00,,---,0.04,VWS V14.01,2013-03-21 16:46:00,
2013-03-21 09:51:00,40.1,17.1,29.83,East,98,2.7,3.6,39,0.00,,---,0.04,VWS V14.01,2013-03-21 16:51:00,
2013-03-21 09:56:00,40.3,17.3,29.83,North,0,2.7,5.4,39,0.00,,---,0.04,VWS V14.01,2013-03-21 16:56:00,
2013-03-21 10:01:00,40.3,17.3,29.83,NW,315,4.9,5.8,39,0.00,,---,0.04,VWS V14.01,2013-03-21 17:01:00,
2013-03-21 10:07:00,40.3,17.3,29.83,West,278,2.2,5.4,39,0.00,,---,0.04,VWS V14.01,2013-03-21 17:07:00,
2013-03-21 10:12:00,40.5,17.5,29.83,NNE,20,2.7,5.4,39,0.00,,---,0.04,VWS V14.01,2013-03-21 17:12:00,
2013-03-21 10:18:00,41.0,17.4,29.83,SSE,152,3.6,6.3,38,0.00,,---,0.04,VWS V14.01,2013-03-21 17:18:00,
2013-03-21 10:24:00,41.2,17.5,29.83,ENE,74,3.1,3.1,38,0.00,,---,0.04,VWS V14.01,2013-03-21 17:24:00,
2013-03-21 10:29:00,41.5,17.8,29.83,NNW,338,4.9,5.8,38,0.00,,---,0.04,VWS V14.01,2013-03-21 17:29:00,
2013-03-21 10:35:00,41.2,17.5,29.83,NNW,348,0.0,6.3,38,0.00,,---,0.04,VWS V14.01,2013-03-21 17:35:00,
2013-03-21 10:40:00,41.4,17.7,29.83,ESE,122,3.1,4.0,38,0.00,,---,0.04,VWS V14.01,2013-03-21 17:40:00,
2013-03-21 10:46:00,41.5,17.8,29.83,NNW,334,3.1,3.1,38,0.00,,---,0.04,VWS V14.01,2013-03-21 17:46:00,
2013-03-21 10:52:00,41.7,17.4,29.83,NNE,14,3.6,5.4,37,0.00,,---,0.04,VWS V14.01,2013-03-21 17:52:00,
2013-03-21 10:57:00,41.7,17.4,29.83,SSW,203,4.0,5.4,37,0.00,,---,0.04,VWS V14.01,2013-03-21 17:57:00,
2013-03-21 11:03:00,41.7,16.8,29.83,South,169,3.1,7.2,36,0.00,,---,0.04,VWS V14.01,2013-03-21 18:03:00,
2013-03-21 11:09:00,41.7,17.4,29.83,WNW,298,2.2,2.7,37,0.00,,---,0.04,VWS V14.01,2013-03-21 18:09:00,
2013-03-21 11:14:00,41.9,16.9,29.83,NW,324,0.0,2.2,36,0.00,,---,0.04,VWS V14.01,2013-03-21 18:14:00,
2013-03-21 11:20:00,42.4,16.7,29.83,NNW,335,2.7,2.7,35,0.00,,---,0.04,VWS V14.01,2013-03-21 18:20:00,
2013-03-21 11:25:00,42.4,16.1,29.83,SW,230,3.6,5.8,34,0.00,,---,0.04,VWS V14.01,2013-03-21 18:25:00,
2013-03-21 11:32:00,42.4,16.1,29.83,South,189,0.0,2.2,34,0.00,,---,0.04,VWS V14.01,2013-03-21 18:32:00,
2013-03-21 11:37:00,43.2,16.7,29.83,SSE,155,2.2,3.1,34,0.00,,---,0.04,VWS V14.01,2013-03-21 18:37:00,
2013-03-21 11:42:00,44.8,16.7,29.83,North,8,3.1,8.3,32,0.00,,---,0.04,VWS V14.01,2013-03-21 18:42:00,
2013-03-21 11:47:00,45.1,16.3,29.83,ESE,104,4.9,8.3,31,0.00,,---,0.04,VWS V14.01,2013-03-21 18:47:00,
2013-03-21 11:52:00,44.8,15.3,29.83,NNW,344,5.4,7.6,30,0.00,,---,0.04,VWS V14.01,2013-03-21 18:52:00,
2013-03-21 11:58:00,44.1,15.4,29.83,SSW,207,2.2,5.4,31,0.00,,---,0.04,VWS V14.01,2013-03-21 18:58:00,
2013-03-21 12:03:00,43.7,15.1,29.85,SW,218,2.7,3.6,31,0.00,,---,0.04,VWS V14.01,2013-03-21 19:03:00,
2013-03-21 12:08:00,43.5,14.9,29.85,NW,311,4.0,4.9,31,0.00,,---,0.04,VWS V14.01,2013-03-21 19:08:00,
2013-03-21 12:13:00,43.5,15.6,29.85,South,189,3.1,3.1,32,0.00,,---,0.04,VWS V14.01,2013-03-21 19:13:00,
2013-03-21 12:19:00,44.1,15.4,29.83,NW,319,5.4,5.4,31,0.00,,---,0.04,VWS V14.01,2013-03-21 19:19:00,
2013-03-21 12:24:00,43.7,15.1,29.83,West,269,5.8,7.6,31,0.00,,---,0.04,VWS V14.01,2013-03-21 19:24:00,
2013-03-21 12:30:00,43.3,14.8,29.83,NNW,331,3.1,3.6,31,0.00,,---,0.04,VWS V14.01,2013-03-21 19:30:00,
2013-03-21 12:35:00,43.3,15.5,29.83,WNW,298,3.6,3.6,32,0.00,,---,0.04,VWS V14.01,2013-03-21 19:35:00,
2013-03-21 12:40:00,43.3,14.8,29.83,WSW,244,5.8,5.8,31,0.00,,---,0.04,VWS V14.01,2013-03-21 19:40:00,
2013-03-21 12:45:00,43.7,15.1,29.83,NNW,333,4.9,8.3,31,0.00,,---,0.04,VWS V14.01,2013-03-21 19:45:00,
2013-03-21 12:51:00,45.3,16.5,29.83,NW,308,4.9,4.9,31,0.00,,---,0.04,VWS V14.01,2013-03-21 19:51:00,
2013-03-21 12:56:00,46.2,15.7,29.83,NNE,20,3.1,4.0,29,0.00,,---,0.04,VWS V14.01,2013-03-21 19:56:00,
2013-03-21 13:01:00,46.0,15.6,29.83,NNE,14,2.2,3.6,29,0.00,,---,0.04,VWS V14.01,2013-03-21 20:01:00,
2013-03-21 13:07:00,46.0,16.4,29.83,NNW,348,6.3,6.3,30,0.00,,---,0.04,VWS V14.01,2013-03-21 20:07:00,
2013-03-21 13:13:00,46.4,15.9,29.83,South,169,5.4,6.3,29,0.00,,---,0.04,VWS V14.01,2013-03-21 20:13:00,
2013-03-21 13:19:00,47.5,16.8,29.83,WSW,241,0.0,0.0,29,0.00,,---,0.04,VWS V14.01,2013-03-21 20:19:00,
2013-03-21 13:24:00,48.0,16.5,29.83,NNW,344,5.4,9.2,28,0.00,,---,0.04,VWS V14.01,2013-03-21 20:24:00,
2013-03-21 13:30:00,47.3,15.9,29.83,NW,322,3.1,5.4,28,0.00,,---,0.04,VWS V14.01,2013-03-21 20:30:00,
2013-03-21 13:35:00,46.2,15.7,29.83,NNE,19,3.6,8.1,29,0.00,,---,0.04,VWS V14.01,2013-03-21 20:35:00,
2013-03-21 13:41:00,45.1,14.8,29.83,South,182,3.6,4.0,29,0.00,,---,0.04,VWS V14.01,2013-03-21 20:41:00,
2013-03-21 13:46:00,44.2,14.8,29.83,North,357,0.0,0.0,30,0.00,,---,0.04,VWS V14.01,2013-03-21 20:46:00,
2013-03-21 13:52:00,43.9,14.5,29.83,SSE,156,2.7,4.0,30,0.00,,---,0.04,VWS V14.01,2013-03-21 20:52:00,
2013-03-21 13:58:00,43.7,15.8,29.83,ESE,123,3.6,3.6,32,0.00,,---,0.04,VWS V14.01,2013-03-21 20:58:00,
2013-03-21 14:04:00,43.3,16.2,29.83,ESE,105,3.6,3.6,33,0.00,,---,0.04,VWS V14.01,2013-03-21 21:04:00,
2013-03-21 14:09:00,43.0,15.9,29.83,ESE,105,2.7,3.1,33,0.00,,---,0.04,VWS V14.01,2013-03-21 21:09:00,
2013-03-21 14:15:00,41.7,16.8,29.83,ENE,72,4.0,6.3,36,0.00,,---,0.04,VWS V14.01,2013-03-21 21:15:00,
2013-03-21 14:20:00,39.9,17.0,29.83,East,91,7.6,7.6,39,0.00,,---,0.04,VWS V14.01,2013-03-21 21:20:00,
2013-03-21 14:26:00,38.8,17.7,29.83,East,91,7.6,7.6,42,0.00,,---,0.04,VWS V14.01,2013-03-21 21:26:00,
2013-03-21 14:32:00,38.1,18.1,29.83,East,91,7.6,7.6,44,0.04,,---,0.08,VWS V14.01,2013-03-21 21:32:00,
2013-03-21 14:38:00,37.8,18.9,29.83,East,91,7.6,7.6,46,0.04,,---,0.08,VWS V14.01,2013-03-21 21:38:00,
2013-03-21 14:43:00,37.4,19.0,29.83,East,91,7.6,7.6,47,0.08,,---,0.12,VWS V14.01,2013-03-21 21:43:00,
2013-03-21 14:48:00,37.4,20.0,29.83,East,91,7.6,7.6,49,0.08,,---,0.12,VWS V14.01,2013-03-21 21:48:00,
2013-03-21 14:54:00,37.6,21.6,29.83,East,91,7.6,7.6,52,0.08,,---,0.12,VWS V14.01,2013-03-21 21:54:00,
2013-03-21 14:59:00,38.1,22.1,29.83,East,91,7.6,7.6,52,0.12,,---,0.16,VWS V14.01,2013-03-21 21:59:00,
2013-03-21 15:04:00,38.8,21.8,29.83,East,91,7.6,7.6,50,0.12,,---,0.16,VWS V14.01,2013-03-21 22:04:00,
2013-03-21 15:10:00,39.6,22.5,29.83,East,91,7.6,7.6,50,0.12,,---,0.16,VWS V14.01,2013-03-21 22:10:00,
2013-03-21 15:17:00,39.4,22.3,29.83,East,91,7.6,7.6,50,0.12,,---,0.16,VWS V14.01,2013-03-21 22:17:00,
2013-03-21 15:22:00,39.2,22.6,29.83,East,91,7.6,7.6,51,0.12,,---,0.16,VWS V14.01,2013-03-21 22:22:00,
2013-03-21 15:28:00,39.2,22.6,29.83,East,91,7.6,7.6,51,0.12,,---,0.16,VWS V14.01,2013-03-21 22:28:00,
2013-03-21 15:33:00,39.4,22.8,29.80,East,91,7.6,7.6,51,0.08,,---,0.16,VWS V14.01,2013-03-21 22:33:00,
2013-03-21 15:39:00,39.6,22.5,29.80,East,91,7.6,7.6,50,0.08,,---,0.16,VWS V14.01,2013-03-21 22:39:00,
2013-03-21 15:44:00,40.1,24.4,29.83,East,91,7.6,7.6,53,0.04,,---,0.16,VWS V14.01,2013-03-21 22:44:00,
2013-03-21 15:50:00,40.5,24.2,29.83,East,91,7.6,7.6,52,0.04,,---,0.16,VWS V14.01,2013-03-21 22:50:00,
2013-03-21 15:56:00,40.3,23.6,29.83,East,91,7.6,7.6,51,0.04,,---,0.16,VWS V14.01,2013-03-21 22:56:00,
2013-03-21 16:02:00,39.0,22.0,29.83,East,91,7.6,7.6,50,0.04,,---,0.20,VWS V14.01,2013-03-21 23:02:00,
2013-03-21 16:08:00,38.5,22.4,29.83,East,91,7.6,7.6,52,0.04,,---,0.20,VWS V14.01,2013-03-21 23:08:00,
2013-03-21 16:13:00,37.8,22.2,29.83,East,91,7.6,7.6,53,0.04,,---,0.20,VWS V14.01,2013-03-21 23:13:00,
2013-03-21 16:19:00,37.6,22.9,29.83,East,91,7.6,7.6,55,0.04,,---,0.20,VWS V14.01,2013-03-21 23:19:00,
2013-03-21 16:25:00,38.1,24.7,29.83,East,91,7.6,7.6,58,0.04,,---,0.20,VWS V14.01,2013-03-21 23:25:00,
2013-03-21 16:30:00,38.7,26.8,29.83,East,91,7.6,7.6,62,0.04,,---,0.20,VWS V14.01,2013-03-21 23:30:00,
2013-03-21 16:36:00,38.8,26.2,29.83,East,91,7.6,7.6,60,0.04,,---,0.20,VWS V14.01,2013-03-21 23:36:00,
2013-03-21 16:41:00,39.2,24.4,29.83,East,91,7.6,7.6,55,0.04,,---,0.20,VWS V14.01,2013-03-21 23:41:00,
2013-03-21 16:47:00,39.4,22.8,29.83,East,91,7.6,7.6,51,0.04,,---,0.20,VWS V14.01,2013-03-21 23:47:00,
2013-03-21 16:52:00,39.2,22.6,29.83,East,91,7.6,7.6,51,0.04,,---,0.20,VWS V14.01,2013-03-21 23:52:00,
2013-03-21 16:58:00,39.0,22.9,29.83,East,91,7.6,7.6,52,0.00,,---,0.20,VWS V14.01,2013-03-21 23:58:00,
2013-03-21 17:03:00,38.8,23.2,29.83,East,91,7.6,7.6,53,0.00,,---,0.20,VWS V14.01,2013-03-22 00:03:00,
2013-03-21 17:09:00,38.7,23.5,29.83,East,91,7.6,7.6,54,0.00,,---,0.20,VWS V14.01,2013-03-22 00:09:00,
2013-03-21 17:15:00,38.5,23.3,29.83,East,91,7.6,7.6,54,0.00,,---,0.20,VWS V14.01,2013-03-22 00:15:00,
2013-03-21 17:20:00,38.1,21.6,29.83,East,91,7.6,7.6,51,0.04,,---,0.24,VWS V14.01,2013-03-22 00:20:00,
2013-03-21 17:25:00,37.9,21.4,29.83,East,91,7.6,7.6,51,0.04,,---,0.24,VWS V14.01,2013-03-22 00:25:00,
2013-03-21 17:31:00,37.8,21.3,29.83,East,91,7.6,7.6,51,0.04,,---,0.24,VWS V14.01,2013-03-22 00:31:00,
2013-03-21 17:36:00,37.8,21.7,29.83,East,91,7.6,7.6,52,0.04,,---,0.24,VWS V14.01,2013-03-22 00:36:00,
2013-03-21 17:42:00,37.8,21.7,29.83,East,91,7.6,7.6,52,0.04,,---,0.24,VWS V14.01,2013-03-22 00:42:00,
2013-03-21 17:48:00,38.1,23.0,29.83,East,91,7.6,7.6,54,0.04,,---,0.24,VWS V14.01,2013-03-22 00:48:00,
2013-03-21 17:53:00,37.9,23.2,29.83,East,91,7.6,7.6,55,0.04,,---,0.24,VWS V14.01,2013-03-22 00:53:00,
2013-03-21 17:58:00,37.9,23.2,29.83,East,91,7.6,7.6,55,0.04,,---,0.24,VWS V14.01,2013-03-22 00:58:00,
2013-03-21 18:04:00,37.9,23.2,29.83,East,91,7.6,7.6,55,0.04,,---,0.24,VWS V14.01,2013-03-22 01:04:00,
2013-03-21 18:09:00,37.8,23.1,29.83,East,91,7.6,7.6,55,0.04,,---,0.24,VWS V14.01,2013-03-22 01:09:00,
2013-03-21 18:14:00,37.8,22.6,29.83,East,91,7.6,7.6,54,0.04,,---,0.24,VWS V14.01,2013-03-22 01:14:00,
2013-03-21 18:20:00,37.8,22.6,29.83,East,91,7.6,7.6,54,0.00,,---,0.24,VWS V14.01,2013-03-22 01:20:00,
2013-03-21 18:25:00,37.8,22.2,29.83,East,91,7.6,7.6,53,0.00,,---,0.24,VWS V14.01,2013-03-22 01:25:00,
2013-03-21 18:31:00,37.8,22.2,29.83,East,91,7.6,7.6,53,0.00,,---,0.24,VWS V14.01,2013-03-22 01:31:00,
2013-03-21 18:37:00,37.6,22.0,29.83,East,91,7.6,7.6,53,0.00,,---,0.24,VWS V14.01,2013-03-22 01:37:00,
2013-03-21 18:42:00,37.6,21.6,29.83,East,91,7.6,7.6,52,0.00,,---,0.24,VWS V14.01,2013-03-22 01:42:00,
2013-03-21 18:47:00,37.6,21.6,29.83,East,91,7.6,7.6,52,0.00,,---,0.24,VWS V14.01,2013-03-22 01:47:00,
2013-03-21 18:52:00,37.6,21.1,29.83,East,91,7.6,7.6,51,0.00,,---,0.24,VWS V14.01,2013-03-22 01:52:00,
2013-03-21 18:58:00,37.9,23.2,29.83,East,91,7.6,7.6,55,0.00,,---,0.24,VWS V14.01,2013-03-22 01:58:00,
2013-03-21 19:04:00,37.6,23.3,29.83,East,91,7.6,7.6,56,0.00,,---,0.24,VWS V14.01,2013-03-22 02:04:00,
2013-03-21 19:10:00,37.4,24.0,29.83,East,91,7.6,7.6,58,0.00,,---,0.24,VWS V14.01,2013-03-22 02:10:00,
2013-03-21 19:16:00,37.2,24.6,29.83,East,91,7.6,7.6,60,0.00,,---,0.24,VWS V14.01,2013-03-22 02:16:00,
2013-03-21 19:21:00,37.2,24.2,29.83,East,91,7.6,7.6,59,0.00,,---,0.24,VWS V14.01,2013-03-22 02:21:00,
2013-03-21 19:27:00,37.0,24.9,29.83,East,91,7.6,7.6,61,0.00,,---,0.24,VWS V14.01,2013-03-22 02:27:00,
2013-03-21 19:32:00,36.9,25.5,29.83,East,91,7.6,7.6,63,0.00,,---,0.24,VWS V14.01,2013-03-22 02:32:00,
2013-03-21 19:38:00,36.9,26.6,29.83,East,91,7.6,7.6,66,0.00,,---,0.24,VWS V14.01,2013-03-22 02:38:00,
2013-03-21 19:44:00,36.9,26.9,29.83,East,91,7.6,7.6,67,0.00,,---,0.24,VWS V14.01,2013-03-22 02:44:00,
2013-03-21 19:49:00,36.7,25.3,29.83,East,91,7.6,7.6,63,0.00,,---,0.24,VWS V14.01,2013-03-22 02:49:00,
2013-03-21 19:54:00,36.7,25.3,29.83,East,91,7.6,7.6,63,0.00,,---,0.24,VWS V14.01,2013-03-22 02:54:00,
2013-03-21 20:00:00,36.3,24.6,29.83,East,91,7.6,7.6,62,0.00,,---,0.24,VWS V14.01,2013-03-22 03:00:00,
2013-03-21 20:06:00,36.3,25.0,29.83,East,91,7.6,7.6,63,0.00,,---,0.24,VWS V14.01,2013-03-22 03:06:00,
2013-03-21 20:12:00,36.1,26.6,29.83,East,91,7.6,7.6,68,0.00,,---,0.24,VWS V14.01,2013-03-22 03:12:00,
2013-03-21 20:17:00,36.0,27.5,29.83,East,91,7.6,7.6,71,0.00,,---,0.24,VWS V14.01,2013-03-22 03:17:00,
2013-03-21 20:22:00,35.8,28.0,29.83,East,91,7.6,7.6,73,0.00,,---,0.24,VWS V14.01,2013-03-22 03:22:00,
2013-03-21 20:27:00,35.8,28.0,29.83,East,91,7.6,7.6,73,0.00,,---,0.24,VWS V14.01,2013-03-22 03:27:00,
2013-03-21 20:32:00,35.6,28.1,29.85,East,91,7.6,7.6,74,0.00,,---,0.24,VWS V14.01,2013-03-22 03:32:00,
2013-03-21 20:38:00,35.8,29.0,29.85,East,91,7.6,7.6,76,0.00,,---,0.24,VWS V14.01,2013-03-22 03:38:00,
2013-03-21 20:44:00,35.8,29.3,29.85,East,91,7.6,7.6,77,0.00,,---,0.24,VWS V14.01,2013-03-22 03:44:00,
2013-03-21 20:49:00,35.6,29.1,29.85,East,91,7.6,7.6,77,0.00,,---,0.24,VWS V14.01,2013-03-22 03:49:00,
2013-03-21 20:54:00,35.6,29.1,29.85,East,91,7.6,7.6,77,0.00,,---,0.24,VWS V14.01,2013-03-22 03:54:00,
2013-03-21 21:00:00,35.6,29.1,29.85,East,91,7.6,7.6,77,0.00,,---,0.24,VWS V14.01,2013-03-22 04:00:00,
2013-03-21 21:02:00,35.6,29.1,29.85,East,91,7.6,7.6,77,0.00,,---,0.24,VWS V14.01,2013-03-22 04:02:00,
2013-03-21 21:03:00,35.6,29.1,29.85,East,91,7.6,7.6,77,0.00,,---,0.24,VWS V14.01,2013-03-22 04:03:00,
2013-03-21 21:07:00,35.4,29.2,29.85,East,91,7.6,7.6,78,0.00,,---,0.24,VWS V14.01,2013-03-22 04:07:00,
2013-03-21 21:12:00,35.4,29.2,29.85,East,91,7.6,7.6,78,0.00,,---,0.24,VWS V14.01,2013-03-22 04:12:00,
2013-03-21 21:17:00,35.4,29.2,29.85,East,91,7.6,7.6,78,0.00,,---,0.24,VWS V14.01,2013-03-22 04:17:00,
2013-03-21 21:22:00,35.4,29.6,29.85,East,91,7.6,7.6,79,0.00,,---,0.24,VWS V14.01,2013-03-22 04:22:00,
2013-03-21 21:28:00,35.6,29.7,29.85,East,91,7.6,7.6,79,0.00,,---,0.24,VWS V14.01,2013-03-22 04:28:00,
2013-03-21 21:33:00,35.4,29.6,29.85,East,91,7.6,7.6,79,0.00,,---,0.24,VWS V14.01,2013-03-22 04:33:00,
2013-03-21 21:38:00,35.4,29.6,29.85,East,91,7.6,7.6,79,0.00,,---,0.24,VWS V14.01,2013-03-22 04:38:00,
2013-03-21 21:43:00,35.2,29.4,29.85,East,91,7.6,7.6,79,0.00,,---,0.24,VWS V14.01,2013-03-22 04:43:00,
2013-03-21 21:48:00,35.1,29.2,29.85,East,91,7.6,7.6,79,0.00,,---,0.24,VWS V14.01,2013-03-22 04:48:00,
2013-03-21 21:53:00,35.1,29.2,29.85,East,91,7.6,7.6,79,0.00,,---,0.24,VWS V14.01,2013-03-22 04:53:00,
2013-03-21 21:59:00,35.1,29.2,29.85,East,91,7.6,7.6,79,0.00,,---,0.24,VWS V14.01,2013-03-22 04:59:00,
2013-03-21 22:04:00,35.1,29.2,29.85,East,91,7.6,7.6,79,0.00,,---,0.24,VWS V14.01,2013-03-22 05:04:00,
2013-03-21 22:09:00,34.9,29.0,29.85,East,91,7.6,7.6,79,0.00,,---,0.24,VWS V14.01,2013-03-22 05:09:00,
2013-03-21 22:15:00,34.9,29.0,29.88,East,91,7.6,7.6,79,0.00,,---,0.24,VWS V14.01,2013-03-22 05:15:00,
2013-03-21 22:20:00,34.9,29.0,29.88,East,91,7.6,7.6,79,0.00,,---,0.24,VWS V14.01,2013-03-22 05:20:00,
2013-03-21 22:27:00,34.9,29.0,29.88,East,91,7.6,7.6,79,0.00,,---,0.24,VWS V14.01,2013-03-22 05:27:00,
2013-03-21 22:32:00,34.9,29.0,29.88,East,91,7.6,7.6,79,0.00,,---,0.24,VWS V14.01,2013-03-22 05:32:00,
2013-03-21 22:38:00,34.9,29.4,29.88,East,91,7.6,7.6,80,0.00,,---,0.24,VWS V14.01,2013-03-22 05:38:00,
2013-03-21 22:44:00,34.9,29.4,29.88,East,91,7.6,7.6,80,0.00,,---,0.24,VWS V14.01,2013-03-22 05:44:00,
2013-03-21 22:49:00,34.9,29.4,29.88,East,91,7.6,7.6,80,0.00,,---,0.24,VWS V14.01,2013-03-22 05:49:00,
2013-03-21 22:54:00,35.1,29.8,29.88,East,91,7.6,7.6,81,0.00,,---,0.24,VWS V14.01,2013-03-22 05:54:00,
2013-03-21 22:59:00,35.1,30.1,29.88,East,91,7.6,7.6,82,0.00,,---,0.24,VWS V14.01,2013-03-22 05:59:00,
2013-03-21 23:05:00,35.1,30.4,29.88,East,91,7.6,7.6,83,0.00,,---,0.24,VWS V14.01,2013-03-22 06:05:00,
2013-03-21 23:12:00,34.9,30.2,29.88,East,91,7.6,7.6,83,0.00,,---,0.24,VWS V14.01,2013-03-22 06:12:00,
2013-03-21 23:18:00,34.9,30.2,29.88,East,91,7.6,7.6,83,0.00,,---,0.24,VWS V14.01,2013-03-22 06:18:00,
2013-03-21 23:24:00,34.9,30.2,29.88,East,91,7.6,7.6,83,0.00,,---,0.24,VWS V14.01,2013-03-22 06:24:00,
2013-03-21 23:29:00,35.1,30.4,29.88,East,91,7.6,7.6,83,0.00,,---,0.24,VWS V14.01,2013-03-22 06:29:00,
2013-03-21 23:35:00,35.1,30.4,29.88,East,91,7.6,7.6,83,0.00,,---,0.24,VWS V14.01,2013-03-22 06:35:00,
2013-03-21 23:40:00,35.1,30.7,29.88,East,91,7.6,7.6,84,0.00,,---,0.24,VWS V14.01,2013-03-22 06:40:00,
2013-03-21 23:47:00,35.1,30.7,29.88,East,91,7.6,7.6,84,0.00,,---,0.24,VWS V14.01,2013-03-22 06:47:00,
2013-03-21 23:53:00,35.2,30.9,29.88,East,91,7.6,7.6,84,0.00,,---,0.24,VWS V14.01,2013-03-22 06:53:00,
2013-03-21 23:58:00,35.2,30.9,29.88,East,91,7.6,7.6,84,0.00,,---,0.24,VWS V14.01,2013-03-22 06:58:00,